Dewpoint
63 66 66 66 65 64 65 66 66 66 67 66 67 67 66 65 65 64 63 63 64 65 65 65 65 66 66 66 65 66 64 62
61 62 65 65 63 63 64 65 65 65 66 66 67 66 64 63 63 63 62 63 62 60 59 63 64 64 64 64 64 64 63 61
63 63 64 64 62 62 64 65 65 65 64 65 64 64 63 62 62 62 61 61 61 59 57 59 61 62 63 63 63 61 59 59
56 62 64 64 58 58 65 63 63 64 63 63 63 62 62 61 62 62 61 60 59 59 58 57 56 57 59 62 60 57 55 59
52 59 63 64 63 63 63 63 63 63 62 62 62 60 61 60 61 61 61 59 59 58 58 58 57 57 57 59 60 60 57 54
50 58 60 61 60 58 60 58 59 59 59 59 61 60 59 59 59 57 58 58 58 58 57 56 56 57 57 57 58 60 59 58
48 54 58 59 58 58 57 56 55 54 55 55 57 57 58 58 58 57 57 57 57 58 57 57 57 57 58 58 57 57 60 59
48 50 55 55 57 57 56 54 52 52 53 54 55 57 57 57 55 55 54 55 56 57 58 59 58 58 58 58 58 57 57 58
45 47 51 52 53 53 52 49 47 49 52 52 53 54 52 51 51 50 52 53 54 54 53 54 56 58 58 59 59 59 59 59
42 35 45 48 49 47 46 46 48 49 52 52 50 50 50 49 49 49 48 49 48 46 46 48 51 53 55 54 54 56 58 58
41 40 40 45 45 44 45 46 46 47 50 49 48 46 46 45 46 48 46 43 43 42 42 42 41 42 42 47 47 49 52 56
41 40 42 44 44 44 44 45 44 44 45 45 46 44 43 43 45 44 43 42 42 43 43 42 42 41 35 36 41 43 49 56
39 38 41 40 41 41 41 42 43 44 43 43 45 43 43 43 42 41 42 42 41 41 41 41 41 42 40 37 38 37 39 44
39 39 40 40 39 40 41 42 41 41 42 44 43 45 43 41 43 40 41 41 41 43 42 40 41 41 40 38 34 32 39 41
40 39 39 41 40 38 40 41 41 39 39 41 43 44 45 44 43 42 41 41 41 42 41 40 39 40 39 39 34 32 34 34
43 42 39 39 43 37 40 36 33 34 37 37 37 44 44 42 42 43 42 42 41 42 40 43 41 38 40 39 39 38 34 33
45 43 42 41 42 42 39 40 39 39 40 40 39 40 40 39 40 41 42 43 42 42 42 42 42 41 39 39 39 39 38 36
47 45 41 42 42 43 43 40 41 41 41 39 39 39 40 41 38 39 40 39 39 39 38 38 39 39 39 38 37 36 35 34
46 44 41 41 44 44 42 43 42 41 41 39 37 36 35 36 36 36 36 35 36 36 35 36 36 35 34 34 34 34 34 32
43 39 39 40 42 43 44 43 41 41 39 37 35 34 34 34 33 34 34 34 35 35 34 34 34 35 34 35 34 34 33 31
Lifted_Index
-7 -7 -6 -5 -4 -3 -2 -3 -3 -4 -5 -5 -4 -4 -3 -2 -2 -2 -2 -2 -2 -2 -2 -2 -2 -3 -3 -3 -3 -2 -3 -3
-6 -6 -6 -6 -4 -3 -2 -3 -3 -4 -4 -4 -4 -4 -3 -2 -2 -1 -1 -1 -1 -1 -1 -1 -1 -2 -2 -2 -2 -2 -2 -2
-5 -5 -6 -5 -4 -3 -3 -3 -3 -3 -3 -3 -4 -3 -3 -2 -1 -0 -0 0 1 1 1 1 0 -0 -1 -1 -1 -1 -1 -1
-3 -4 -5 -5 -4 -3 -4 -4 -4 -3 -3 -3 -3 -3 -2 -2 -1 -0 0 1 1 1 1 2 1 1 1 0 -0 -0 0 -0
-0 -2 -3 -4 -3 -3 -4 -4 -3 -3 -3 -2 -2 -2 -1 -1 -1 -1 0 1 1 1 2 2 2 2 3 2 1 1 1 0
1 -0 -2 -3 -2 -2 -3 -2 -1 -1 -1 -1 -1 -1 -1 -0 -0 0 1 1 1 1 2 3 3 3 3 3 3 2 1 1
2 1 -0 -1 -1 -1 -0 1 2 2 2 1 1 1 1 1 1 1 2 2 2 1 2 2 3 3 3 3 3 3 2 1
3 3 2 1 1 1 2 3 4 4 4 3 2 2 2 3 3 3 3 3 3 2 2 2 2 2 2 2 2 2 2 1
5 5 4 3 3 3 5 6 6 6 5 4 4 4 4 5 5 5 5 5 5 4 4 4 3 2 1 1 1 1 1 1
6 6 6 5 5 6 7 7 7 6 6 5 6 6 6 6 6 7 7 7 7 7 7 7 6 5 4 3 2 1 0 -0
7 7 7 7 7 7 8 8 8 7 7 7 7 8 8 8 8 8 8 8 9 9 9 8 8 8 7 6 5 3 2 1
8 8 8 8 9 9 9 9 9 8 8 8 8 9 9 9 9 9 9 9 9 9 9 9 9 9 9 9 8 7 5 3
9 9 9 9 10 10 10 9 9 9 9 9 9 10 10 10 9 9 9 9 9 9 9 9 9 9 9 10 10 9 8 6
8 9 9 9 10 10 10 9 9 9 9 9 9 9 9 9 9 9 9 8 8 8 8 9 9 9 9 9 9 9 9 8
7 8 8 9 9 9 9 9 9 9 9 9 9 9 9 8 8 8 8 8 8 8 8 8 9 9 9 9 9 9 9 9
6 7 7 8 8 8 8 9 9 9 9 9 8 8 8 8 8 8 7 7 7 7 7 7 8 8 8 8 8 9 9 9
6 6 6 7 7 8 8 8 8 8 8 8 8 8 8 8 8 7 7 7 7 7 7 7 7 7 7 8 8 8 8 8
5 5 6 6 6 7 7 8 8 7 7 8 8 7 7 7 7 7 7 7 7 7 8 7 7 7 8 8 8 8 8 8
5 5 5 5 6 6 7 7 7 7 7 7 8 7 7 7 7 7 7 7 8 8 8 8 8 8 8 8 8 8 8 8
4 5 5 5 5 6 6 7 7 7 7 7 7 7 7 7 7 8 8 8 8 8 8 8 8 8 8 8 8 8 8 8